TimeEET,TemperatureF,Dew PointF,Humidity,Sea Level PressureIn,VisibilityMPH,Wind Direction,Wind SpeedMPH,Gust SpeedMPH,PrecipitationIn,Events,Conditions,WindDirDegrees,DateUTC
12:00 AM,78.8,57.2,47,29.86,-9999.0,WNW,16.1,-,N/A,,Clear,300,2013-09-26 22:00:00
1:00 AM,77.0,57.2,50,29.83,-9999.0,NW,15.0,-,N/A,,Clear,310,2013-09-26 23:00:00
2:00 AM,76,58,43,29.84,6,NW,11.5,,,,,310,2013-09-27 00:00:00
2:00 AM,77.0,57.2,50,29.83,-9999.0,NW,11.5,-,N/A,,Clear,310,2013-09-27 00:00:00
3:00 AM,75.2,57.2,53,29.83,-9999.0,NW,11.5,-,N/A,,Clear,320,2013-09-27 01:00:00
4:00 AM,75.2,57.2,53,29.83,-9999.0,WNW,11.5,-,N/A,,Clear,300,2013-09-27 02:00:00
5:00 AM,73.4,57.2,57,29.83,-9999.0,WNW,13.8,-,N/A,,Clear,300,2013-09-27 03:00:00
6:00 AM,73.4,59.0,61,29.83,-9999.0,WNW,11.5,-,N/A,,Clear,300,2013-09-27 04:00:00
7:00 AM,77.0,57.2,50,29.86,-9999.0,WNW,13.8,-,N/A,,Clear,300,2013-09-27 05:00:00
8:00 AM,80,58,37,29.86,6,NNW,13.8,,,,,330,2013-09-27 06:00:00
8:00 AM,78.8,59.0,51,29.86,-9999.0,NNW,13.8,-,N/A,,Clear,330,2013-09-27 06:00:00
9:00 AM,82.4,64.4,54,29.86,-9999.0,North,20.7,-,N/A,,Clear,350,2013-09-27 07:00:00
10:00 AM,84.2,62.6,48,29.86,-9999.0,North,23.0,-,N/A,,Clear,350,2013-09-27 08:00:00
11:00 AM,86.0,64.4,48,29.83,-9999.0,North,25.3,-,N/A,,Clear,360,2013-09-27 09:00:00
12:00 PM,87.8,64.4,46,29.80,-9999.0,North,25.3,-,N/A,,Clear,360,2013-09-27 10:00:00
1:00 PM,87.8,64.4,46,29.80,-9999.0,North,25.3,-,N/A,,Clear,360,2013-09-27 11:00:00
2:00 PM,87,64,36,29.78,6,North,23.0,,,,,0,2013-09-27 12:00:00
2:00 PM,87.8,64.4,46,29.77,-9999.0,North,23.0,-,N/A,,Clear,360,2013-09-27 12:00:00
3:00 PM,87.8,64.4,46,29.74,-9999.0,North,23.0,-,N/A,,Clear,350,2013-09-27 13:00:00
4:00 PM,87.8,66.2,49,29.74,-9999.0,North,25.3,-,N/A,,Clear,350,2013-09-27 14:00:00
5:00 PM,87.8,64.4,46,29.77,-9999.0,North,20.7,-,N/A,,Clear,350,2013-09-27 15:00:00
6:00 PM,84.2,57.2,40,29.77,-9999.0,North,18.4,-,N/A,,Clear,350,2013-09-27 16:00:00
7:00 PM,86.0,66.2,51,29.77,-9999.0,North,20.7,-,N/A,,Clear,350,2013-09-27 17:00:00
8:00 PM,84,63,39,29.81,6,NNW,18.4,,,,,330,2013-09-27 18:00:00
8:00 PM,84.2,62.6,48,29.80,-9999.0,North,18.4,-,N/A,,Clear,350,2013-09-27 18:00:00
9:00 PM,82.4,64.4,54,29.80,-9999.0,WNW,13.8,-,N/A,,Clear,300,2013-09-27 19:00:00
10:00 PM,78.8,55.4,44,29.80,-9999.0,WNW,17.3,-,N/A,,Clear,300,2013-09-27 20:00:00
11:00 PM,78.8,55.4,44,29.80,-9999.0,WNW,17.3,-,N/A,,Clear,300,2013-09-27 21:00:00